Lake Charles, LA

12:13 AM CDT on August 26, 2016 (GMT -0500)
Chennault International

Weather History for KCWF - July, 2013

Change the Weather History Date:

Thursday, July 11, 2013

  Actual Average Record
Temperature  
Mean Temperature 84 °F -  
Max Temperature 94 °F 89 °F 95 °F (1998)
Min Temperature 75 °F 75 °F 71 °F (2006)
Cooling Degree Days 19    
Growing Degree Days 34 (Base 50)    
Moisture  
Dew Point 73 °F    
Average Humidity 73    
Maximum Humidity 94    
Minimum Humidity 41    
Precipitation  
Precipitation 0.00 in - - ()
Sea Level Pressure  
Sea Level Pressure 29.99 in    
Wind  
Wind Speed 6 mph (WSW)    
Max Wind Speed 12 mph    
Max Gust Speed 17 mph    
Visibility 10 miles    
Events Thunderstorm    
Averages and records for this station are not official NWS values.
T = Trace of Precipitation, MM = Missing Value Source: NWS Daily Summary

Daily Weather History Graph

Daily Weather History Graph

Search for Another Location

Airport or City:

Trip Planner

Search our weather history database for the weather conditions in past years. The results will help you decide how hot, cold, wet, or windy it might be!

Date:

Astronomy

Jul. 11, 2013 Rise Set
Actual Time 6:19 AM CDT 8:16 PM CDT
Civil Twilight 5:52 AM CDT 8:43 PM CDT
Nautical Twilight 5:19 AM CDT 9:16 PM CDT
Astronomical Twilight 4:44 AM CDT 9:51 PM CDT
Moon 9:21 AM CDT (7/11) 10:16 PM CDT (7/11)
Length of Visible Light 14h 51m
Length of Day
13h 57m
Waxing Crescent, 11% of the Moon is Illuminated
Jul 11
Waxing Crescent
Jul 15
First Quarter
Jul 22
Full
Jul 29
Last Quarter
Aug 6
New

Hourly Weather History & Observations

Time (CDT) Temp. Heat Index Dew Point Humidity Pressure Visibility Wind Dir Wind Speed Gust Speed Precip Events Conditions
12:15 AM 81.9 °F 87.5 °F 73.6 °F 76% 30.01 in 10.0 mi SW 6.9 mph - N/A   Clear
12:35 AM 81.7 °F 87.3 °F 73.8 °F 77% 30.00 in 10.0 mi SSW 5.8 mph - N/A   Clear
12:55 AM 81.5 °F 87.2 °F 73.9 °F 78% 30.00 in 10.0 mi SSW 5.8 mph - N/A   Clear
1:15 AM 80.6 °F 85.5 °F 73.9 °F 80% 30.01 in 10.0 mi SSW 5.8 mph - N/A   Clear
1:35 AM 80.6 °F 85.7 °F 74.3 °F 81% 30.02 in 10.0 mi SW 4.6 mph - N/A   Clear
1:55 AM 80.6 °F 85.7 °F 74.3 °F 81% 30.02 in 10.0 mi SSW 5.8 mph - N/A   Clear
2:15 AM 80.6 °F 85.9 °F 74.5 °F 82% 30.01 in 10.0 mi SSW 4.6 mph - N/A   Clear
2:35 AM 80.1 °F 84.8 °F 74.7 °F 83% 30.01 in 10.0 mi SW 3.5 mph - N/A   Clear
2:55 AM 80.4 °F 85.8 °F 75.0 °F 84% 30.02 in 10.0 mi Calm Calm - N/A   Clear
3:15 AM 80.2 °F 85.7 °F 75.6 °F 86% 30.02 in 10.0 mi Calm Calm - N/A   Clear
3:35 AM 80.8 °F 86.5 °F 75.0 °F 83% 30.02 in 10.0 mi SW 4.6 mph - N/A   Clear
3:55 AM 81.0 °F 86.3 °F 74.3 °F 80% 30.02 in 10.0 mi SW 4.6 mph - N/A   Clear
4:15 AM 81.0 °F 86.2 °F 73.9 °F 79% 30.02 in 10.0 mi WSW 5.8 mph - N/A   Clear
4:35 AM 81.1 °F 86.2 °F 73.4 °F 77% 30.02 in 10.0 mi WSW 8.1 mph - N/A   Clear
4:55 AM 81.0 °F 85.6 °F 72.9 °F 76% 30.02 in 10.0 mi WSW 6.9 mph - N/A   Clear
5:15 AM 80.8 °F 85.4 °F 72.9 °F 77% 30.02 in 10.0 mi WSW 4.6 mph - N/A   Scattered Clouds
5:35 AM 80.4 °F 84.7 °F 72.7 °F 77% 30.02 in 10.0 mi WSW 5.8 mph - N/A   Clear
5:55 AM 80.6 °F 85.0 °F 72.9 °F 77% 30.02 in 10.0 mi WSW 5.8 mph - N/A   Mostly Cloudy
6:15 AM 79.9 °F - 72.9 °F 79% 30.01 in 10.0 mi SW 4.6 mph - N/A   Scattered Clouds
6:35 AM 79.7 °F - 73.4 °F 81% 30.01 in 10.0 mi SW 4.6 mph - N/A   Scattered Clouds
6:48 AM 80.6 °F 85.4 °F 73.4 °F 79% 30.01 in 10.0 mi Calm Calm - N/A   Scattered Clouds
6:55 AM 80.6 °F 85.4 °F 73.4 °F 79% 30.00 in 10.0 mi WSW 4.6 mph - N/A   Clear
7:55 AM 82.4 °F 88.2 °F 73.4 °F 74% 30.01 in 10.0 mi WSW 4.6 mph - N/A   Scattered Clouds
8:57 AM 84.2 °F 90.9 °F 73.4 °F 70% 30.01 in 10.0 mi West 11.5 mph 17.3 mph N/A   Scattered Clouds
9:50 AM 86.0 °F 91.8 °F 71.6 °F 62% 30.01 in 10.0 mi West 11.5 mph 17.3 mph N/A   Scattered Clouds
10:45 AM 87.8 °F 93.8 °F 71.6 °F 58% 30.01 in 10.0 mi West 6.9 mph - N/A   Scattered Clouds
11:48 AM 89.6 °F 94.7 °F 69.8 °F 52% 30.01 in 10.0 mi WNW 6.9 mph - N/A   Scattered Clouds
12:50 PM 91.4 °F 95.4 °F 68.0 °F 46% 29.99 in 10.0 mi WNW 8.1 mph - N/A   Scattered Clouds
1:46 PM 91.4 °F 95.4 °F 68.0 °F 46% 29.98 in 10.0 mi WNW 8.1 mph - N/A   Scattered Clouds
2:50 PM 91.4 °F 95.4 °F 68.0 °F 46% 29.96 in 10.0 mi NNW 6.9 mph - N/A   Mostly Cloudy
3:51 PM 93.2 °F 96.2 °F 66.2 °F 41% 29.94 in 10.0 mi WNW 6.9 mph - N/A   Overcast
4:54 PM 91.4 °F 96.8 °F 69.8 °F 49% 29.93 in 10.0 mi North 6.9 mph - N/A   Overcast
5:54 PM 87.8 °F 93.8 °F 71.6 °F 58% 29.94 in 10.0 mi North 8.1 mph - N/A   Overcast
6:49 PM 87.8 °F 95.6 °F 73.4 °F 62% 29.93 in 7.0 mi SE 8.1 mph - N/A Thunderstorm Thunderstorm
7:55 PM 80.6 °F 84.6 °F 71.6 °F 74% 29.96 in 10.0 mi South 9.2 mph - N/A   Overcast
8:50 PM 78.8 °F - 71.6 °F 78% 29.95 in 10.0 mi East 5.8 mph - N/A   Overcast
9:52 PM 75.2 °F - 73.4 °F 94% 29.94 in 10.0 mi SE 8.1 mph - N/A   Mostly Cloudy
11:15 PM 78.1 °F - 73.0 °F 84% 29.96 in 10.0 mi Calm Calm - N/A   Scattered Clouds
11:35 PM 77.5 °F - 73.0 °F 86% 29.95 in 10.0 mi Calm Calm - N/A   Clear
11:55 PM 75.7 °F - 73.6 °F 93% 29.94 in 10.0 mi SSE 6.9 mph - N/A   Clear